Location: St. Louis
(38.6270°N, 90.1994°W)
Time: 01:12:56
(UTC-06:00)

Transit 2A - Pass Details

Date: 03 December 2021
Orbit: 591 x 966 km, 66.7° (Epoch: 24 January)

Event Time Altitude Azimuth Distance (km) Brightness Sun altitude
Rises 23:16:57 0° 192° (SSW) 3,207 - -72.1°
Reaches altitude 10° 23:19:16 10° 187° (S) 2,343 - -72.3°
Maximum altitude 23:24:31 52° 112° (ESE) 1,044 - -72.7°
Drops below altitude 10° 23:30:20 10° 38° (NE) 2,592 - -73.1°
Sets 23:33:01 0° 34° (NNE) 3,580 - -73.2°
